Wind_Speed
15 15 14 14 14 15 16 17 18 19 21 20 20 19 20 21 20 20 21 20 21 21 21 22 22 22 22 22 23 23 23 22 23 23 23 22 23 22 22 23 22 22 22 22
17 16 15 16 15 16 17 18 18 19 20 18 18 19 20 20 19 19 19 19 20 20 21 22 22 22 22 22 22 22 22 21 21 21 20 21 21 21 21 20 20 20 20 21
17 17 17 16 15 15 16 16 17 17 18 18 17 18 18 18 17 17 18 19 20 20 20 21 21 21 21 21 21 21 20 20 20 19 19 19 20 20 19 19 19 19 20 20
17 17 17 15 14 15 17 17 17 16 18 17 17 16 16 16 15 16 17 19 20 20 20 20 20 20 20 20 20 19 19 18 18 18 18 18 19 19 17 17 17 17 17 17
18 18 18 16 14 14 17 17 17 16 16 16 16 15 14 14 14 15 16 18 19 19 19 19 19 18 19 19 19 18 18 17 17 17 17 17 17 17 16 16 16 16 17 16
18 18 18 16 15 14 15 15 15 15 14 14 14 14 13 13 14 15 16 17 18 18 18 17 17 17 17 18 18 18 17 16 16 16 16 16 15 15 15 14 14 14 15 15
18 18 17 15 14 14 14 14 14 13 14 14 13 12 13 13 14 14 15 16 17 17 17 16 16 15 15 16 17 17 16 15 15 16 15 15 13 13 13 14 13 13 13 13
17 16 16 14 14 13 13 13 12 13 13 12 12 11 12 12 13 13 14 15 15 15 15 15 15 14 14 15 16 16 16 16 15 15 13 13 12 13 13 13 12 12 13 14
17 16 15 14 13 13 12 12 12 11 11 11 11 10 11 11 12 12 13 13 14 14 14 14 14 14 15 15 15 15 16 15 15 14 13 13 12 13 12 12 12 12 13 13
16 16 14 13 12 12 11 12 11 10 10 10 10 10 10 10 11 12 13 13 14 14 14 14 14 14 15 15 15 15 15 15 14 14 14 13 13 12 12 12 12 13 13 13
15 13 13 13 11 11 11 10 10 10 9 9 9 9 9 10 10 11 12 12 13 13 13 13 14 14 15 15 15 15 14 14 14 15 15 14 13 13 12 13 13 13 12 13
16 13 13 12 11 11 10 10 10 9 8 8 8 8 8 8 8 9 10 10 12 13 13 14 14 14 15 15 14 14 14 14 14 15 15 15 14 13 13 14 14 14 13 13
14 14 12 11 11 11 10 10 9 7 7 7 6 6 6 7 8 9 9 10 11 13 14 14 14 15 15 15 14 14 14 15 15 15 15 15 14 14 13 14 14 13 13 13
14 14 12 10 9 9 8 8 7 5 5 5 5 5 5 6 7 8 9 10 11 12 14 14 14 15 15 15 15 14 15 15 15 15 15 15 14 15 15 15 14 14 14 13
13 13 12 10 9 7 5 5 5 4 4 4 4 4 5 6 7 8 9 10 11 12 14 14 15 15 15 15 15 15 15 15 15 15 15 15 15 15 15 15 15 15 15 15
13 12 12 10 9 7 5 5 4 4 3 3 2 3 4 5 7 8 9 9 11 13 14 14 15 15 15 15 15 15 15 15 15 15 16 16 16 16 17 17 16 17 17 16
13 13 12 11 10 8 6 5 4 3 3 2 2 3 3 5 6 8 9 10 11 13 14 14 15 15 15 15 15 15 15 15 15 16 16 16 16 16 17 17 17 17 17 17
14 14 13 12 10 10 7 5 4 3 3 2 1 2 3 5 6 8 9 10 11 13 14 14 14 15 15 15 16 16 16 15 15 16 16 16 17 17 18 18 18 18 17 18
15 14 13 12 10 9 8 6 5 4 3 1 0 2 3 5 6 7 8 9 11 12 13 13 14 14 15 16 16 17 17 17 17 17 17 17 18 18 18 19 19 19 19 19
16 14 13 12 10 8 8 7 6 4 3 2 0 1 3 5 6 7 8 9 10 11 12 13 14 14 15 16 16 17 18 18 18 18 18 19 19 19 19 20 20 19 19 19
16 15 14 12 10 10 9 8 6 5 3 2 1 1 3 5 6 7 8 9 10 11 12 13 14 15 15 16 17 18 19 19 19 19 20 20 20 21 21 21 21 20 20 20
17 16 14 13 12 11 10 8 7 5 4 2 1 1 3 4 6 7 8 9 10 11 12 13 14 15 16 17 18 19 20 20 21 22 22 22 22 22 22 22 23 22 22 22
18 16 15 14 13 11 10 9 7 5 4 3 1 1 3 4 6 7 8 9 10 11 13 14 15 16 17 18 19 20 21 22 22 23 23 23 23 23 23 24 24 23 23 23
18 17 16 14 13 12 10 9 7 5 4 2 1 1 3 4 5 7 8 9 11 12 13 14 15 16 18 19 21 22 22 23 23 24 24 24 24 25 25 25 25 24 24 24
19 18 17 15 13 12 10 9 7 6 4 2 0 1 3 4 5 7 8 10 12 13 14 15 16 17 19 20 22 22 23 24 25 25 25 25 25 26 26 26 26 26 26 26
19 18 16 14 13 11 10 8 7 5 3 2 0 2 3 4 6 7 9 11 12 13 15 16 17 19 21 22 23 23 24 25 26 26 25 26 27 27 27 27 26 26 27 27
19 18 16 14 13 11 10 8 6 5 3 2 1 2 3 4 6 8 10 11 13 14 15 17 18 20 21 22 24 24 25 26 27 27 26 28 28 28 28 28 28 28 29 29
Wind_Direction
270 273 276 281 281 279 278 279 279 283 285 285 290 297 300 303 303 303 304 304 306 308 309 310 311 311 311 310 309 308 307 305 305 303 301 300 300 300 299 300 299 298 298 296
271 272 273 277 279 276 280 283 284 287 287 287 290 297 301 303 304 306 308 308 310 310 310 311 312 313 314 314 314 313 310 310 309 308 306 304 305 305 306 306 304 301 301 299
273 274 276 278 280 280 282 283 282 285 288 289 295 300 303 305 308 309 311 312 312 312 312 314 315 315 316 317 317 316 314 313 313 312 312 311 310 311 310 309 309 303 300 301
272 274 274 276 278 280 280 282 282 286 292 294 295 304 305 307 311 312 315 316 316 314 313 314 316 317 318 318 319 320 318 316 315 315 313 314 314 316 315 315 313 310 309 304
271 272 273 275 277 277 281 281 282 282 290 297 297 301 304 309 314 317 318 322 322 320 318 317 319 320 320 322 321 322 323 321 320 317 317 318 319 317 319 319 318 315 313 313
270 270 269 272 277 277 281 284 288 288 292 298 300 300 305 312 318 321 322 325 326 326 325 322 320 322 325 327 326 325 325 324 323 322 321 320 321 319 319 320 320 316 314 314
267 270 270 271 275 274 276 283 288 293 296 297 299 303 308 314 319 323 326 328 330 332 335 336 333 328 329 330 330 331 332 331 329 327 326 325 325 325 326 324 323 321 322 321
260 262 264 270 272 272 276 280 286 292 295 301 305 307 311 316 321 325 329 332 335 339 341 343 343 341 339 339 339 340 341 340 336 333 330 330 331 329 328 328 330 329 327 325
256 258 261 264 267 272 275 280 285 292 298 302 307 310 312 317 322 328 331 335 339 343 344 345 346 348 347 347 346 346 347 346 344 343 344 343 339 336 333 333 333 334 334 331
252 254 256 258 265 269 273 280 284 290 296 300 307 312 314 318 323 329 334 338 342 345 348 349 351 352 353 352 353 352 352 353 353 353 351 351 350 347 344 343 342 341 340 341
252 253 251 252 250 260 268 275 278 288 295 300 307 311 314 320 327 333 337 340 345 349 353 354 355 356 355 356 358 0 1 0 359 358 357 356 357 355 354 353 350 349 346 343
247 247 246 248 250 254 262 271 276 283 291 301 308 313 318 323 331 339 343 349 353 356 357 358 359 359 359 359 1 3 4 4 5 4 4 4 1 359 359 359 357 354 353 352
245 244 245 245 247 251 259 268 274 278 286 293 305 316 322 330 338 344 348 353 357 360 1 2 3 4 3 3 3 3 4 3 4 6 6 5 3 3 2 0 358 357 354 354
239 239 240 242 246 250 257 262 264 268 278 289 302 319 329 338 344 348 351 354 357 1 4 5 7 6 5 5 5 4 4 4 4 4 4 6 7 7 7 5 3 1 357 356
231 232 233 236 241 241 245 250 256 259 268 284 301 321 334 344 350 354 355 356 358 359 2 4 6 6 5 5 4 4 3 4 5 7 9 10 11 10 8 6 5 2 358 354
225 227 227 229 228 226 228 235 239 241 250 274 301 323 339 349 354 357 357 358 359 0 2 3 4 5 5 4 4 5 6 6 6 7 8 7 6 5 2 1 0 358 355 353
218 217 218 219 218 216 216 222 219 221 236 247 298 328 342 350 355 357 359 0 0 1 1 3 5 6 6 7 7 6 6 4 4 4 3 2 1 359 357 357 358 357 355 352
210 209 212 215 211 205 204 209 207 209 213 225 285 334 344 349 354 358 0 2 2 2 2 4 7 8 9 8 7 6 4 2 0 358 357 356 354 353 353 350 349 350 350 349
204 203 206 208 200 198 198 195 196 193 193 195 301 349 355 359 1 2 3 4 4 4 5 7 9 10 10 8 7 5 3 2 360 357 356 354 352 352 350 347 345 344 342 341
197 198 199 198 194 191 189 185 187 184 178 166 98 13 6 4 4 6 7 7 7 6 6 8 9 9 8 7 5 3 1 359 357 354 351 349 347 346 345 344 343 341 339 339
194 192 194 193 190 184 181 182 184 181 171 156 116 37 15 9 6 6 6 5 5 4 5 7 7 7 5 3 2 1 358 355 353 351 349 346 344 342 342 341 340 339 336 333
189 187 190 188 182 181 182 181 180 178 173 167 137 43 18 10 6 4 3 3 3 3 3 4 4 3 1 359 358 357 355 353 351 350 347 344 343 342 341 340 339 338 335 332
186 184 184 183 181 178 178 176 177 177 176 173 154 22 7 6 4 3 3 2 2 2 2 1 0 359 357 355 354 353 352 351 349 348 346 344 343 344 344 342 340 339 337 335
183 182 180 179 177 177 177 176 178 180 182 184 183 356 0 2 1 3 4 3 1 360 359 358 357 356 354 353 352 351 351 349 348 347 346 345 344 344 344 342 341 339 337 335
180 179 178 177 177 177 177 178 180 183 189 194 207 357 359 0 0 2 2 360 359 358 357 356 354 353 353 352 351 350 348 347 346 345 345 344 344 344 342 341 340 338 336 335
178 178 177 176 177 177 178 179 183 187 190 194 261 351 358 358 358 358 358 357 356 356 355 353 352 351 350 348 347 346 345 344 344 344 343 341 342 341 340 339 338 337 336 335
179 178 177 178 179 179 179 182 187 192 194 200 262 344 349 349 349 351 351 351 351 352 351 350 349 348 347 345 345 346 345 344 343 343 342 341 340 339 338 338 337 336 335 334
Height
5813 5813 5813 5812 5812 5811 5810 5809 5808 5807 5805 5803 5801 5798 5796 5794 5792 5789 5787 5785 5782 5779 5776 5773 5770 5766 5763 5759 5756 5753 5750 5748 5745 5743 5740 5738 5735 5733 5731 5729 5726 5725 5723 5721
5809 5809 5809 5809 5808 5808 5806 5805 5804 5803 5801 5799 5796 5795 5793 5790 5788 5785 5783 5781 5778 5775 5772 5769 5765 5762 5758 5755 5752 5748 5745 5742 5740 5737 5735 5733 5730 5728 5725 5723 5721 5719 5717 5715
5805 5805 5804 5804 5804 5804 5803 5801 5800 5798 5798 5795 5793 5791 5789 5787 5784 5782 5780 5777 5774 5771 5768 5765 5761 5758 5754 5751 5748 5744 5741 5738 5736 5733 5731 5728 5726 5723 5721 5719 5717 5715 5713 5711
5800 5801 5800 5802 5800 5800 5798 5797 5796 5794 5794 5792 5790 5788 5786 5784 5782 5780 5777 5774 5770 5767 5764 5761 5757 5754 5751 5747 5744 5741 5738 5735 5732 5730 5727 5725 5722 5720 5717 5715 5714 5711 5709 5707
5796 5796 5796 5797 5797 5796 5795 5794 5792 5791 5791 5789 5787 5785 5784 5781 5779 5777 5774 5771 5767 5764 5760 5757 5754 5751 5747 5744 5741 5738 5735 5732 5730 5727 5724 5722 5719 5717 5714 5713 5710 5708 5706 5704
5791 5791 5791 5794 5793 5792 5792 5789 5789 5788 5787 5786 5784 5783 5782 5779 5777 5774 5772 5768 5765 5761 5758 5754 5751 5748 5745 5742 5738 5736 5733 5730 5727 5724 5721 5719 5716 5714 5712 5710 5707 5706 5703 5701
5786 5786 5787 5789 5789 5790 5790 5789 5787 5785 5785 5783 5782 5781 5779 5777 5775 5772 5769 5766 5763 5760 5756 5752 5749 5746 5743 5740 5737 5734 5731 5728 5725 5722 5719 5716 5714 5712 5709 5707 5705 5703 5701 5699
5783 5783 5786 5786 5786 5786 5786 5785 5784 5783 5782 5781 5779 5778 5777 5775 5773 5770 5768 5765 5762 5758 5755 5751 5748 5744 5741 5738 5735 5732 5729 5726 5723 5720 5717 5714 5712 5710 5707 5705 5703 5701 5699 5697
5779 5781 5782 5782 5783 5783 5783 5783 5782 5780 5780 5779 5778 5776 5775 5773 5771 5769 5766 5764 5760 5757 5754 5751 5747 5744 5741 5738 5734 5731 5728 5725 5722 5719 5716 5713 5711 5708 5706 5704 5702 5700 5698 5695
5775 5776 5777 5779 5780 5780 5780 5780 5779 5779 5778 5777 5776 5775 5773 5772 5770 5768 5765 5763 5760 5757 5753 5750 5747 5744 5741 5737 5734 5731 5728 5725 5722 5719 5716 5713 5711 5708 5706 5703 5701 5699 5697 5694
5771 5773 5774 5776 5776 5777 5777 5777 5777 5777 5776 5776 5775 5774 5772 5771 5769 5767 5764 5762 5759 5756 5753 5750 5747 5744 5740 5737 5734 5731 5728 5725 5722 5719 5716 5713 5710 5708 5706 5703 5700 5698 5696 5693
5768 5770 5771 5773 5773 5774 5775 5775 5775 5775 5775 5774 5773 5772 5771 5770 5768 5766 5764 5761 5759 5756 5753 5750 5747 5744 5741 5737 5734 5731 5728 5725 5722 5720 5717 5714 5711 5708 5706 5703 5700 5698 5695 5692
5765 5766 5767 5769 5770 5772 5773 5773 5773 5773 5773 5773 5772 5771 5770 5769 5767 5766 5764 5761 5759 5756 5753 5750 5747 5744 5741 5738 5735 5732 5729 5726 5723 5720 5717 5714 5711 5708 5706 5703 5700 5697 5695 5692
5760 5762 5764 5766 5768 5769 5770 5771 5771 5771 5771 5771 5771 5770 5770 5768 5767 5765 5763 5761 5759 5756 5753 5750 5747 5744 5741 5738 5735 5732 5729 5726 5723 5721 5717 5714 5712 5709 5706 5703 5700 5697 5695 5692
5757 5759 5762 5764 5765 5766 5767 5768 5769 5769 5770 5770 5770 5770 5769 5768 5767 5765 5763 5761 5759 5756 5754 5751 5748 5745 5742 5739 5736 5733 5730 5727 5724 5721 5718 5715 5712 5709 5706 5704 5701 5698 5695 5692
5754 5756 5759 5761 5763 5764 5766 5767 5768 5768 5769 5769 5769 5769 5768 5768 5766 5765 5763 5761 5759 5757 5754 5751 5748 5745 5742 5739 5736 5733 5730 5727 5724 5722 5719 5716 5713 5710 5707 5704 5701 5698 5694 5691
5751 5754 5756 5759 5760 5762 5764 5766 5767 5767 5768 5768 5769 5768 5768 5767 5766 5765 5763 5761 5759 5757 5754 5751 5749 5745 5743 5740 5737 5734 5731 5728 5725 5722 5719 5716 5713 5710 5707 5704 5700 5697 5694 5691
5748 5751 5754 5756 5759 5761 5763 5764 5765 5766 5767 5768 5768 5768 5768 5767 5766 5765 5763 5762 5759 5757 5754 5752 5749 5746 5743 5740 5737 5734 5731 5728 5725 5723 5719 5716 5713 5710 5707 5703 5700 5696 5693 5689
5746 5749 5752 5755 5757 5759 5761 5763 5765 5766 5766 5767 5768 5768 5767 5767 5766 5765 5763 5762 5760 5757 5755 5752 5750 5747 5744 5741 5738 5735 5732 5729 5726 5722 5719 5716 5712 5709 5705 5702 5698 5695 5691 5688
5744 5748 5750 5753 5756 5758 5760 5762 5764 5765 5766 5767 5767 5767 5767 5766 5766 5765 5763 5762 5760 5758 5755 5753 5750 5748 5745 5742 5739 5736 5732 5729 5725 5722 5718 5714 5711 5707 5704 5700 5696 5693 5689 5686
5743 5746 5749 5752 5754 5757 5759 5761 5763 5765 5766 5767 5767 5767 5767 5766 5766 5765 5763 5762 5760 5758 5756 5753 5751 5748 5745 5742 5739 5736 5732 5729 5725 5721 5717 5713 5709 5706 5702 5698 5694 5691 5687 5683
5741 5744 5748 5751 5754 5756 5759 5761 5763 5764 5765 5766 5767 5767 5766 5766 5765 5764 5763 5762 5760 5758 5756 5754 5751 5748 5745 5742 5739 5735 5732 5728 5724 5720 5715 5711 5707 5703 5699 5695 5692 5688 5684 5680
5740 5743 5747 5750 5753 5756 5758 5760 5762 5764 5765 5766 5766 5766 5766 5766 5765 5764 5763 5762 5760 5758 5756 5753 5751 5748 5745 5742 5738 5735 5731 5727 5722 5718 5714 5710 5705 5701 5697 5693 5689 5685 5680 5677
5739 5743 5747 5750 5753 5756 5758 5760 5762 5763 5765 5765 5766 5766 5766 5765 5765 5764 5763 5761 5759 5757 5755 5753 5751 5748 5745 5741 5737 5734 5729 5725 5721 5716 5712 5708 5703 5699 5694 5690 5686 5682 5677 5673
5739 5743 5746 5749 5752 5755 5758 5760 5761 5763 5764 5765 5765 5765 5765 5765 5764 5763 5762 5761 5759 5757 5755 5752 5750 5747 5743 5740 5736 5732 5727 5723 5719 5714 5710 5705 5701 5697 5692 5687 5683 5679 5674 5670
5739 5743 5746 5749 5752 5755 5757 5759 5761 5762 5764 5764 5765 5765 5764 5764 5764 5763 5762 5760 5758 5756 5754 5751 5748 5745 5742 5738 5734 5730 5726 5721 5717 5712 5707 5703 5698 5694 5689 5684 5680 5675 5670 5665
5738 5742 5746 5749 5752 5754 5757 5759 5761 5762 5763 5764 5764 5764 5764 5764 5763 5762 5761 5759 5757 5755 5752 5750 5747 5744 5740 5736 5732 5728 5724 5719 5714 5709 5704 5700 5695 5690 5685 5681 5676 5671 5666 5661